User: anonymous   Login
Location: Unspecified
(0.0000°N, 0.0000°E)
Time: 03:49:35
(UTC+00:00)
Language:

DMSP 5D-3 F19 (USA 249) - Orbit

View from above orbital plane
View from above orbital plane
View from above satellite
View from above satellite

Ground track
Ground track

The orbit data is extracted from the following two-line orbital elements,

1 39630U 14015A   24206.51151002  .00000404  00000-0  23333-3 0  9996
2 39630  98.7582 207.3554 0011057  29.9815 330.1989 14.14473490532051
Epoch (UTC): 24 July 2024 12:16:34
Eccentricity: 0.0011057
inclination: 98.7582°
perigee height: 836 km
apogee height: 852 km
right ascension of ascending node: 207.3554°
argument of perigee: 29.9815°
revolutions per day: 14.14473490
mean anomaly at epoch: 330.1989°
orbit number at epoch: 53205

The dashed part of the orbit path shows where the satellite is in the earth's shadow,  

DLR